Weather History for Klamath Falls, OR

Change the Weather History Date:

Wednesday, August 7, 2013

  Actual Average Record
Temperature  
Mean Temperature 68 °F 67 °F  
Max Temperature 80 °F 85 °F 101 °F (1981)
Min Temperature 56 °F 48 °F 37 °F (2002)
Degree Days  
Heating Degree Days 0 1  
Month to date heating degree days 16 7  
Since 1 June heating degree days 195 274  
Since 1 July heating degree days 17 57  
Cooling Degree Days 3 3  
Month to date cooling degree days 11 21  
Year to date cooling degree days 229 115  
Since 1 June cooling degree days 229 114  
Growing Degree Days 18 (Base 50)    
Moisture  
Dew Point 50 °F    
Average Humidity 57    
Maximum Humidity 72    
Minimum Humidity 30    
Precipitation  
Precipitation 0.03 in 0.02 in 0.27 in (2006)
Month to date precipitation 0.03 0.09  
Year to date precipitation 4.58 9.40  
Sea Level Pressure  
Sea Level Pressure 30.00 in    
Wind  
Wind Speed 8 mph (West)    
Max Wind Speed 26 mph    
Max Gust Speed 40 mph    
Visibility 8 miles    
Events Rain , Thunderstorm    
T = Trace of Precipitation, MM = Missing Value Source: NWS Daily Summary

Daily Weather History Graph

Daily Weather History Graph

Search for Another Location

Airport:

Trip Planner

Search our weather history database for the weather conditions in past years. The results will help you decide how hot, cold, wet, or windy it might be!

Date:

Astronomy

Aug. 07, 2013 Rise Set
Actual Time 6:06 AM PDT 8:18 PM PDT
Civil Twilight 5:35 AM PDT 8:48 PM PDT
Nautical Twilight 4:57 AM PDT 9:26 PM PDT
Astronomical Twilight 4:15 AM PDT 10:08 PM PDT
Moon 7:02 AM PDT (8/7) 8:25 PM PDT (8/7)
Length of Visible Light 15h 13m
Length of Day
14h 11m
New Moon, 1% of the Moon is Illuminated
Aug 7
New Moon
Aug 14
First Quarter
Aug 20
Full
Aug 28
Last Quarter
Sep 5
New

Hourly Weather History & Observations

Time (PDT) Temp. Dew Point Humidity Pressure Visibility Wind Dir Wind Speed Gust Speed Precip Events Conditions
12:53 AM 66.9 °F 48.9 °F 52% 29.93 in 4.0 mi West 4.6 mph - N/A   Haze
1:29 AM 64.4 °F 53.6 °F 68% 30.08 in 4.0 mi Calm Calm - N/A Thunderstorm Haze
1:44 AM 64.4 °F 51.8 °F 64% 30.07 in 4.0 mi WSW 3.5 mph - N/A   Haze
1:53 AM 64.9 °F 52.0 °F 63% 29.94 in 4.0 mi SSW 4.6 mph - N/A   Haze
2:13 AM 66.2 °F 51.8 °F 60% 30.09 in 4.0 mi SW 3.5 mph - N/A Thunderstorm Haze
2:28 AM 66.2 °F 51.8 °F 60% 30.09 in 4.0 mi Calm Calm - N/A   Haze
2:53 AM 66.0 °F 50.0 °F 56% 29.94 in 4.0 mi North 5.8 mph - N/A   Haze
3:53 AM 63.0 °F 50.0 °F 63% 29.92 in 5.0 mi Calm Calm - N/A   Haze
4:53 AM 61.0 °F 51.1 °F 70% 29.93 in 4.0 mi South 4.6 mph - N/A   Haze
5:53 AM 64.9 °F 52.0 °F 63% 29.93 in 9.0 mi WNW 5.8 mph - 0.00 in Rain Light Rain
6:53 AM 62.1 °F 53.1 °F 72% 29.95 in 7.0 mi South 11.5 mph - 0.00 in   Overcast
7:53 AM 63.0 °F 53.1 °F 70% 29.98 in 10.0 mi SW 6.9 mph - 0.00 in Rain Light Rain
8:02 AM 64.4 °F 53.6 °F 68% 30.12 in 10.0 mi WSW 11.5 mph - 0.00 in Rain , Thunderstorm Light Rain
8:17 AM 64.4 °F 51.8 °F 64% 30.11 in 10.0 mi WNW 13.8 mph - 0.00 in Rain Light Rain
8:53 AM 64.9 °F 53.1 °F 65% 29.97 in 10.0 mi NNE 8.1 mph - 0.00 in Rain Light Rain
9:53 AM 64.0 °F 53.1 °F 67% 30.01 in 10.0 mi WSW 3.5 mph 16.1 mph 0.00 in   Overcast
10:53 AM 64.9 °F 50.0 °F 58% 30.03 in 5.0 mi ESE 6.9 mph - 0.02 in Rain Light Rain
11:42 AM 66.2 °F 44.6 °F 46% 30.10 in 10.0 mi SSE 16.1 mph 38.0 mph 0.01 in Rain , Thunderstorm Light Thunderstorms and Rain
11:53 AM 64.9 °F 46.9 °F 52% 30.00 in 10.0 mi SW 9.2 mph - 0.01 in Rain , Thunderstorm Light Rain
12:00 PM 66.2 °F 46.4 °F 49% 30.13 in 10.0 mi South 13.8 mph - 0.00 in Rain Light Rain
12:16 PM 64.4 °F 46.4 °F 52% 30.13 in 10.0 mi SE 3.5 mph - 0.00 in Rain Light Rain
12:53 PM 63.0 °F 52.0 °F 67% 30.02 in 10.0 mi WSW 6.9 mph - 0.00 in Rain Light Rain
1:53 PM 64.9 °F 46.0 °F 50% 29.99 in 10.0 mi ENE 5.8 mph 18.4 mph 0.00 in Rain Light Rain
2:53 PM - - N/A% 30.09 in - NE 11.5 mph - 0.00 in   Unknown
3:53 PM 78.1 °F 45.0 °F 31% 29.94 in 10.0 mi NE 8.1 mph - N/A   Clear
4:53 PM 79.0 °F 44.1 °F 29% 29.93 in 10.0 mi NE 8.1 mph - N/A   Clear
5:53 PM 75.9 °F 48.9 °F 38% 29.91 in 10.0 mi NNW 16.1 mph - N/A   Clear
6:53 PM 73.0 °F 48.0 °F 41% 29.92 in 10.0 mi NNW 19.6 mph - N/A   Clear
7:53 PM 69.1 °F 48.0 °F 47% 29.95 in 10.0 mi NNW 16.1 mph - N/A   Clear
8:53 PM 66.9 °F 46.0 °F 47% 29.95 in 10.0 mi NNW 10.4 mph - N/A   Mostly Cloudy
9:53 PM 63.0 °F 46.9 °F 56% 29.98 in 10.0 mi West 5.8 mph - N/A   Scattered Clouds
10:53 PM 57.9 °F 46.9 °F 67% 30.00 in 10.0 mi Calm Calm - N/A   Clear
11:53 PM 57.0 °F 48.0 °F 72% 30.00 in 10.0 mi NW 4.6 mph - N/A   Clear